Regional Weather Roundup
Issued by NWS Spokane, WA

Current Version | Previous Version | Text Only | Print | Product List | Glossary On
Versions: 1 2 3 4 5 6 7 8 9 10 11 12 13 14 15 16 17 18 19 20 21 22 23 24 25 26 27 28 29 30 31 32 33 34 35 36 37 38 39 40 41 42 43 44 45 46 47 48 49 50
946
NZUS01 KOTX 231025
RWROTX

Eastern Washington/Northern Idaho Roundup
National Weather Service, Spokane WA
200 AM PST THU FEB 23 2017

Note: "fair" indicated few or no clouds below 12,000 feet with no
significant weather and/or obstructions to visibility.

...Northeast Washington and Northern Idaho Panhandle...

CITY           SKY/WX    TMP DP  RH WIND       PRES   REMARKS
Spokane Intl   PTCLDY    21  18  88 W5        30.01S WCI  15
Spokane Downto FOG       26  25  96 CALM      30.04S VSB 1/2
Coeur d Alene  FOG       24  23  96 N6        30.02S VSB 1/4 WCI  17
Deer Park      FOG       17  14  88 CALM      30.03S VSB 1
Sandpoint      CLOUDY    28  27  93 CALM      30.03S

...Southeast Washington and southern Idaho Panhandle...

CITY           SKY/WX    TMP DP  RH WIND       PRES   REMARKS
Walla Walla    PTCLDY    31  28  89 S8        30.08S WCI  23
Pullman/Moscow MOCLDY    29  27  92 W7        30.01F WCI  22
Lewiston       CLOUDY    34  28  79 SW5       30.03F WCI  30
Lowell           N/A     34  32  92 CALM      30.01F
Grangeville    CLOUDY    30  27  86 NW9       29.94F WCI  22

...Columbia Basin...

CITY           SKY/WX    TMP DP  RH WIND       PRES   REMARKS
Ephrata        CLEAR     29  15  56 NW3       30.09R
Moses Lake     CLEAR     20  17  88 NW5       30.10S WCI  13
Pasco          PTCLDY    28  26  92 CALM      30.14S
Richland       MOSUNNY   29  29  99 CALM      30.14S
Hermiston      MOCLDY    29  27  92 W6        30.11S WCI  23
Pendleton      PTCLDY    30  27  88 CALM      30.07S

...East Slopes Cascades...

CITY           SKY/WX    TMP DP  RH WIND       PRES   REMARKS
The Dalles     CLEAR     37  31  78 NW10      30.16S
Yakima         CLEAR     24  18  77 W7        30.12S WCI  16
Ellensburg     CLEAR     30  20  66 NW14      30.09S WCI  19
Stampede Pass  FOG       21  32 100 VRB5      30.03S VSB 3/4 WCI  15
Wenatchee      CLEAR     25  20  81 W7        30.12R WCI  17
Omak           CLEAR     22  14  71 N8        30.12S WCI  12
Chelan           N/A     27  11  50 MISG        N/A
Sunnyside      MOSUNNY   24  23  96 CALM      30.12S

...Southern British Columbia...

CITY           SKY/WX    TMP DP  RH WIND       PRES   REMARKS
Penticton      CLEAR     27  18  69 N8        30.15S WCI  18
Cranbrook      MOCLDY    23  14  68 W7        29.99S WCI  15
Osoyoos          N/A     25  19  80 E1          N/A
Creston          N/A     27  19  74 NE2         N/A

...Western Montana...

CITY           SKY/WX    TMP DP  RH WIND       PRES   REMARKS
Kalispell      MOSUNNY   21  17  84 N8        29.94S WCI  11
Libby            N/A     19  18  93 CALM      29.99S
Missoula       FLURRIES  30  28  92 CALM      29.92F

...Neighboring Cities...

CITY           SKY/WX    TMP DP  RH WIND       PRES   REMARKS
Seattle        MOCLDY    36  35  96 CALM      30.22S
Portland       CLOUDY    35  33  92 CALM      30.24S
Boise          CLOUDY    32  25  75 NW17      29.81F WCI  21
Great Falls    LGT SNOW  28  26  92 N8        29.93S FOG     WCI  20
Calgary        MOCLDY    21  18  86 E5        30.02S FOG     WCI  15



USA.gov is the U.S. government's official web portal to all federal, state and local government web resources and services.